Regional Weather Roundup
Issued by NWS

Home | Current Version | Previous Version | Graphics & Text | Print | Product List | Glossary Off
Versions: 1 2 3 4 5 6 7 8 9 10 11 12 13 14 15 16 17 18 19 20 21 22 23 24 25 26 27 28 29 30 31 32 33 34 35 36 37 38 39 40 41 42 43 44 45 46 47 48 49 50

000
ASUS43 KDTX 211510
RWRMI
MICHIGAN HOURLY REGIONAL WEATHER ROUNDUP
NATIONAL WEATHER SERVICE DETROIT/PONTIAC MI
1100 AM EDT SUN SEP 21 2014

NOTE: "FAIR" INDICATES FEW OR NO CLOUDS BELOW 12,000 FEET WITH NO
SIGNIFICANT WEATHER AND/OR OBSTRUCTION TO VISIBILITY.

MIZ047>049-052>055-059>063-066>070-074>076-081>083-211600-
SOUTHEAST LOWER MICHIGAN

CITY           SKY/WX    TMP DP  RH WIND       PRES   REMARKS
ADRIAN         MOSUNNY   65  52  62 W18G28    29.73R
ALMA           CLOUDY    61  56  83 W10G17    29.66S
ANN ARBOR      MOSUNNY   66  53  63 W18G25    29.69R
BAD AXE        CLOUDY    62  57  84 W17G23    29.61R
CARO           CLOUDY    59  55  87 W10G20    29.63R
DETROIT CITY   PTSUNNY   66  54  65 W14G20    29.67R
DETROIT        PTSUNNY   67  54  63 W21G28    29.68S
FLINT          PTSUNNY   64  55  72 W15G29    29.66S
GROSSE ILE     PTSUNNY   68  55  64 W15G23    29.68R
HILLSDALE      CLOUDY    63  52  68 W16G23    29.74S
HOWELL         CLOUDY    60  54  81 W18G25    29.69S

CITY           SKY/WX    TMP DP  RH WIND       PRES   REMARKS
JACKSON        CLOUDY    61  51  70 W12G21    29.71R
LAMBERTVILLE   MOSUNNY   68  54  60 W12G24    29.72S
LANSING        CLOUDY    60  51  72 W17       29.70R
LAPEER         PTSUNNY   63  54  74 W10G22    29.64F
MASON          CLOUDY    59  49  70 W12G18    29.71R
MONROE         PTSUNNY   66  55  68 W17G23    29.69S
MT. CLEMENS    PTSUNNY   66  54  65 W14G28    29.63S
PONTIAC        PTSUNNY   63  53  70 W17G31    29.67R
PORT HOPE        N/A     63  57  81 W8        29.56R
PORT HURON     CLOUDY    63  55  77 W10G22    29.64S
TRI CITIES     CLOUDY    63  56  78 W16       29.64S
TROY           MOSUNNY   66  53  61 W20G29    29.68S
SAGINAW HB     CLOUDY    61  61 100 W10G17    29.63S
$$
MIZ043>046-050>051-056>058-064>065-071>073-077>080-211600-
SOUTHWEST LOWER MICHIGAN

CITY           SKY/WX    TMP DP  RH WIND       PRES   REMARKS
BATTLE CREEK   LGT RAIN  58  50  75 W22G32    29.74R
BENTON HARBOR  CLOUDY    59  51  75 W18G29    29.78R
BIG RAPIDS     LGT RAIN  55  55 100 W10G17    29.66R
COLDWATER      CLOUDY    62  51  68 W16G28    29.75R
FREMONT        RAIN      56  55  96 NW18      29.68R
HOLLAND        CLOUDY    61  55  81 W13G29    29.74R
GRAND RAPIDS   CLOUDY    59  56  89 W13       29.70R
IONIA          CLOUDY    59  54  81 W15       29.69R
KALAMAZOO      CLOUDY    61  50  67 W13G25    29.75R
LUDINGTON      RAIN      56  54  94 N17G26    29.73R
MARSHALL       CLOUDY    61  53  72 W14G21    29.72S
MOUNT PLEASANT LGT RAIN  58  56  92 W13G20    29.64S
MUSKEGON       LGT RAIN  59  54  83 NW20G28   29.72R
SOUTH HAVEN    CLOUDY    61  53  76 W16G25    29.76R
$$
MIZ016>042-211600-
NORTHERN LOWER MICHIGAN

CITY           SKY/WX    TMP DP  RH WIND       PRES   REMARKS
ALPENA         LGT RAIN  52  52 100 N17       29.65R FOG
BEAVER ISLAND  CLOUDY    52  48  86 N14       29.75R
BELLAIRE       RAIN      57  55  92 N7        29.68R
CADILLAC       RAIN      55  54  97 NW6       29.66R
CHARLEVOIX     HVY RAIN  53  52  99 N14G25    29.74R
FRANKFORT      HVY RAIN  56  52  88 N14G24    29.73R
GAYLORD        LGT RAIN  51  50  96 NE13G18   29.67R FOG
GRAYLING       CLOUDY    57  53  88 N6        29.66R
HARBOR SPRINGS HVY RAIN  52  49  90 N5        29.71R
HOUGHTON LAKE  CLOUDY    59  53  80 NW6       29.64R
MANISTEE       CLOUDY    55  52  88 NW14G25   29.72R
OSCODA         CLOUDY    58  56  94 N12G17    29.58R
PELLSTON       LGT RAIN  50  49  96 N13       29.73R FOG
ROGERS CITY    RAIN      50  50  99 NE13G20   29.68R
TRAVERSE CITY  LGT RAIN  57  54  89 N13G22    29.68R
$$
MIZ007>008-015-211600-
EASTERN UPPER MICHIGAN

CITY           SKY/WX    TMP DP  RH WIND       PRES   REMARKS
KINROSS        CLOUDY    52  46  82 N14       29.74R
MACKINAC ISLAN CLOUDY    49  47  92 N15G23    29.72R
NEWBERRY       CLOUDY    49  45  87 N12G25    29.79R
S. S. MARIE    CLOUDY    52  42  69 N9G20     29.74R
MUNISING         N/A     50  46  86 N25       29.87R
$$
MIZ004>006-011>014-085-211600-
CENTRAL UPPER MICHIGAN

CITY           SKY/WX    TMP DP  RH WIND       PRES   REMARKS
MANISTIQUE     CLOUDY    50  47  91 N17G25    29.79R
ESCANABA       CLOUDY    52  45  76 N15G24    29.83R
MENOMINEE      CLOUDY    54  48  82 N10       29.84R
SAWYER-GWINN   LGT RAIN  45  43  93 N21G26    29.89R
$$
MIZ001>003-009>011-084-211600-
WESTERN UPPER MICHIGAN

CITY           SKY/WX    TMP DP  RH WIND       PRES   REMARKS
IRON MOUNTAIN  CLOUDY    50  46  86 N15G28    29.88R
HOUGHTON       CLOUDY    45  38  76 N16G25    29.97R
COPPER HARBOR    N/A     46  39  76 NE25G33   29.96R
IRONWOOD       CLOUDY    46  43  87 N14       30.00R
$$

ABBREVIATIONS USED IN REMARKS
   TC - TEMPERATURE IN CELSIUS
  WCI - WIND CHILL INDEX
   HX - HEAT INDEX
  VSB - VISIBILITY



USA.gov is the U.S. government's official web portal to all federal, state and local government web resources and services.